STARLINK-34348, 64152

Orbit data source: Space-Track

STARLINK-34348, 64152 is a payload satellite owned by SpaceX/Seattle (US) in SSO that was launched on Tue, 27 May 2025 UTC via an FALCON 9 launch vehicle from the Air Force Western Test Range (AFWTR). Payload-class satellites include a variety of spacecraft equipped with specific instruments for various scientific and technological missions. These include communications satellites like Starlink; space stations such as the ISS; scientific satellites like the Hubble; Earth observation satellites from companies like Planet Labs, Umbra, and HawkEye 360; GPS; miniature CubeSats for education and research; and military/defense satellites.

Loading next visibility...
Identifier
64152, 2025-112G
Orbit
SSO
Country
Flag of USUS
Related business
Manufacturer
SpaceX/Seattle
Mission
Operational Commercial Communications
Bus & Motor
STARLINK V2MO, Unknown motor
Mass
575 kg wet, ~530 kg dry
Launch date (UTC)
2025-05-27 (1 year ago)
Launch vehicle
FALCON 9
Launch site
Air Force Western Test Range (AFWTR)
Object type
Payload
Rocket body
Debris
Shape & HBR
Box + 2 Pan, 17.7 m
Radar Cross Section
36.964 m², Large (>1 m²)

Expand to show TLE details & history
Last TLE update: 9 hours ago

TLE from 9 hours ago
0 STARLINK-34348
1 64152U 25112G   26145.41997557  .00007697  00000-0  53673-3 0  9990
2 64152  97.4492 196.7725 0001921 128.1357 232.0044 15.05664403 54853
Epoch: 2026-05-25T10:04Z
TLE epoch observation values (Epoch: 2026-05-25T10:04:45.889Z)
Latitude
0.00003°
Longitude
162.57326°
Altitude
553.356 km
Speed
7.585 km/s
True Right ascension
13h 07m 05s
True Declination
0° 00' 00"
Sunlit
Object was in full shadow at epoch
Visualization orbit readout
Latitude
Unknown
Longitude
Unknown
Altitude
Unknown
Speed
Unknown
Apparent Right ascension
Unknown
Apparent Declination
Unknown
Sunlit
N/A
Visualization observer readout
Local Sidereal Time
03:50:40
Azimuth
Unknown
Elevation
Unknown
Doppler factor
Unknown
Orbital elements
Apogee altitude
547.784 km
Perigee altitude
545.124 km
Semi-major axis
6,924.591 km
Eccentricity
0.00019
Inclination
97.4492°
RAAN
196.7725°
Arg. of periapsis
128.1357°
True anomaly
231.98706°
Mean anomaly
232.0044°
Eccentric anomaly
231.99573°
Mean motion
3.76662 °/min
Orbital period
95.58 mins
BSTAR
0.00053673
Loading maneuver chart data...
Computing Atmospheric mass density...
Loading historical data...
Loading historical data...
Loading historical data...
Loading historical data...
Loading historical data...
Loading historical data...
Loading historical data...

Documentation

Showing up to 5 results
|